星链-4425 (STARLINK-4425 )

导读

STARLINK-4425是美国太空探索技术公司的星链互联网卫星项目中一员,于2022年7月22日发射升空,属于星链星座中低轨卫星,旨在为全球提供高速低延迟卫星互联网服务,进一步扩充星链星座规模,推进全球卫星互联网组网进程,目前在预定轨道执行相关任务。

Basic Information
目录编号:
53208
目录名称:
STARLINK-4425
国际标识:
2022-084V
轨道中心:
EARTH
卫星名称:
星链-4425
卫星全名:
星链-4425 (STARLINK-4425 )
卫星状态:
在轨 (已飞行1506 天)
发射日期:
2022-07-22 UTC
国别 :
美国 (US)
星等 :
--
Orbit Information
数据来源 国际轨道数据
星历时间: 2026-09-05T14:00:02+0800
6小时前
查看轨道信息
半长轴: 6859.109km
偏心率: 0.0000513
轨道倾角: 97.282°
近地点辐角 59.993°
升交点赤经 303.238°
平近点角 37.141°
近地点: 480.62km
远地点: 481.324km
周期: 94.224分钟
每日圈数: 15.282741
Detailed Information
固有亮度:
5
最大亮度:
2.5
卫星平台:
Starlink v1.5
覆盖范围:
全球
运营商:
太空探索技术公司
运营商所在国:
美国
制造商(研发单位):
太空探索技术公司
制造商所在国:
美国
使用方式:
暂无
Satellite Introduction
星链(Starlink)计划是由太空探索技术公司(SpaceX)提出的一个巨型低轨卫星互联网星座项目,计划在2019年至2024年间在太空搭建由约1.2万颗卫星组成的“星链”网络,其中1584颗将部署在地球上空550千米处的近地轨道,并从2020年开始工作。该卫星仍在工作。
2D Orbit Map
3D Orbit Map
Orbit Altitude Analysis Chart
Orbit Inclination Analysis Chart
Orbit Comprehensive Analysis Chart
View Comprehensive Chart
Conjunction Data List
Event ID Objects TCA Miss Dist (km) Collision Risk Probability Collision Risk Index (CRI) Action
CDM_260906-171505-307505-320821
2026-09-06T
17:15:25+0000
0.138 km
中距离
1.010019E-3 极高风险 0.95
CDM_260906-123205-307505-320821
2026-09-06T
12:32:52+0000
0.938 km
远距离
3.100429E-5 中风险 0.65
CDM_260905-005805-320805-683321
2026-09-05T
00:58:58+0000
1.089 km
极远距离
1.941383E-5 中风险 0.61
CDM_260906-154105-307505-320821
2026-09-06T
15:41:14+0000
1.537 km
极远距离
5.699735E-6 低风险 0.5
CDM_260906-140705-307505-320821
2026-09-06T
14:07:03+0000
1.584 km
极远距离
5.174264E-6 低风险 0.49
CDM_260905-164505-320805-990521
2026-09-05T
16:45:34+0000
2.279 km
极远距离
1.929132E-6 低风险 0.41
CDM_260906-083705-307505-320821
2026-09-06T
08:37:22+0000
2.347 km
极远距离
1.841144E-6 低风险 0.4
CDM_260905-133705-320805-924721
2026-09-05T
13:37:34+0000
2.357 km
极远距离
1.71596E-6 低风险 0.4
CDM_260907-183404-844305-320821
2026-09-07T
18:34:12+0000
2.427 km
极远距离
1.652296E-6 低风险 0.39
CDM_260905-153605-320805-953921
2026-09-05T
15:36:07+0000
2.453 km
极远距离
1.610016E-6 低风险 0.39